Location: *
(40.7873°S, 98.7174°E)
Time: 20:36:40
(UTC+00:00)

Cosmos 1153 Rocket - Pass Details

Date: 12 October 2022
Orbit: 953 x 1007 km, 82.9° (Epoch: 05 December)

Event Time Altitude Azimuth Distance (km) Brightness Sun altitude
Rises 17:19:21 0° 172° (S) 3,675 8.4 -41.6°
Reaches altitude 10° 17:22:55 10° 152° (SSE) 2,716 7.4 -41.6°
Enters shadow 17:25:47 16° 124° (SE) 2,276 6.7 -41.5°
